sat.trackr.live / text

‹ back to catalog

STARLINK-35592

NORAD 66136 · 2025-237Y

PAYLOAD ACTIVE UNKNOWN

§ Identity

Operator
Country
US
Launch date
2025-10-22
Launch site
AFWTR
Launch vehicle
Mass (kg)
RCS (m²)

Purposes: comms

External: N2YO · Heavens-Above · Gunter

§ Orbital elements

Epoch: 2026-05-25T02:44:27.108096Z

Period
94.11 min
Inclination
53.1612°
Eccentricity
0.0001446
Mean motion
15.30203609 rev/d
Perigee alt
474.2 km
Apogee alt
476.2 km
Semi-major
6,853.3 km
B*
3.0330e-4
RAAN
44.4779°
Arg perigee
93.7997°
Mean anomaly
266.3169°
Rev number
3,431

§ Raw data

STARLINK-355921 66136U 25237Y   26145.11420264  .00008635  00000+0  30330-3 0  99922 66136  53.1612  44.4779 0001446  93.7997 266.3169 15.30203609 34319

JSON: /api/v1/satellites/66136 · /tle

For live sub-satellite position, see the globe view (requires WebGL).

§ Visibility from observer

Set your observer location to see the next 7 days of passes ≥ 10°. The values pass through the URL so the page stays shareable.

No JS? Fill the form by hand. The geolocation button needs JavaScript.